![]() |
EMODnet Physics ERDDAP
Easier access to scientific data |
log in|
Brought to you by EMODnet Physics |
| Dataset Title: | NDBC - Collection of dew point temperature (DEWT) TimeSeries - IN SITU MultiPointTimeSeriesObservation
|
| Institution: | NDBC (Dataset ID: TS_DEWT_NDBC) |
| Information: | Summary
| License
| FGDC
| ISO 19115
| Metadata
| Background
| Subset
| Data Access Form
| Make a graph
|
| Name | Last modified | Size | Description | |
|---|---|---|---|---|
| Parent Directory | - | - | ||
| 46070_TS_DEWT_012007.nc | 22-Dec-2024 22:38 | 429354 | ||
| 46070_TS_DEWT_012008.nc | 22-Dec-2024 22:40 | 420546 | ||
| 46070_TS_DEWT_012009.nc | 22-Dec-2024 22:43 | 429349 | ||
| 46070_TS_DEWT_012012.nc | 22-Dec-2024 22:48 | 429361 | ||
| 46070_TS_DEWT_012013.nc | 22-Dec-2024 22:51 | 429369 | ||
| 46070_TS_DEWT_012014.nc | 22-Dec-2024 22:52 | 429292 | ||
| 46070_TS_DEWT_012017.nc | 22-Dec-2024 22:59 | 429309 | ||
| 46070_TS_DEWT_012020.nc | 22-Dec-2024 23:01 | 429214 | ||
| 46070_TS_DEWT_012022.nc | 22-Dec-2024 23:07 | 428994 | ||
| 46070_TS_DEWT_012024.nc | 17-Jan-2025 11:45 | 424132 | ||
| 46070_TS_DEWT_022007.nc | 22-Dec-2024 22:38 | 429367 | ||
| 46070_TS_DEWT_022008.nc | 22-Dec-2024 22:41 | 429373 | ||
| 46070_TS_DEWT_022009.nc | 22-Dec-2024 22:44 | 429361 | ||
| 46070_TS_DEWT_022012.nc | 22-Dec-2024 22:48 | 428337 | ||
| 46070_TS_DEWT_022013.nc | 22-Dec-2024 22:51 | 429372 | ||
| 46070_TS_DEWT_022014.nc | 22-Dec-2024 22:53 | 429367 | ||
| 46070_TS_DEWT_022017.nc | 22-Dec-2024 23:00 | 429365 | ||
| 46070_TS_DEWT_022024.nc | 17-Jan-2025 11:45 | 429366 | ||
| 46070_TS_DEWT_032007.nc | 22-Dec-2024 22:38 | 429313 | ||
| 46070_TS_DEWT_032008.nc | 22-Dec-2024 22:41 | 429359 | ||
| 46070_TS_DEWT_032009.nc | 22-Dec-2024 22:44 | 429569 | ||
| 46070_TS_DEWT_032012.nc | 22-Dec-2024 22:48 | 429152 | ||
| 46070_TS_DEWT_032013.nc | 22-Dec-2024 22:51 | 429111 | ||
| 46070_TS_DEWT_032014.nc | 22-Dec-2024 22:53 | 428979 | ||
| 46070_TS_DEWT_032017.nc | 22-Dec-2024 23:00 | 425756 | ||
| 46070_TS_DEWT_032024.nc | 17-Jan-2025 11:46 | 429523 | ||
| 46070_TS_DEWT_042007.nc | 22-Dec-2024 22:39 | 429567 | ||
| 46070_TS_DEWT_042009.nc | 22-Dec-2024 22:44 | 429572 | ||
| 46070_TS_DEWT_042012.nc | 22-Dec-2024 22:48 | 429573 | ||
| 46070_TS_DEWT_042013.nc | 22-Dec-2024 22:51 | 429569 | ||
| 46070_TS_DEWT_042024.nc | 17-Jan-2025 11:47 | 429575 | ||
| 46070_TS_DEWT_052007.nc | 22-Dec-2024 22:39 | 429565 | ||
| 46070_TS_DEWT_052009.nc | 22-Dec-2024 22:45 | 429571 | ||
| 46070_TS_DEWT_052012.nc | 22-Dec-2024 22:49 | 429572 | ||
| 46070_TS_DEWT_052013.nc | 22-Dec-2024 22:51 | 418875 | ||
| 46070_TS_DEWT_052024.nc | 17-Jan-2025 11:48 | 420405 | ||
| 46070_TS_DEWT_062007.nc | 22-Dec-2024 22:39 | 429570 | ||
| 46070_TS_DEWT_062008.nc | 22-Dec-2024 22:42 | 429549 | ||
| 46070_TS_DEWT_062009.nc | 22-Dec-2024 22:45 | 429573 | ||
| 46070_TS_DEWT_062012.nc | 22-Dec-2024 22:49 | 429568 | ||
| 46070_TS_DEWT_062013.nc | 22-Dec-2024 22:51 | 429665 | ||
| 46070_TS_DEWT_062020.nc | 22-Dec-2024 23:02 | 420089 | ||
| 46070_TS_DEWT_062023.nc | 22-Dec-2024 23:07 | 429687 | ||
| 46070_TS_DEWT_062024.nc | 17-Jan-2025 11:49 | 429694 | ||
| 46070_TS_DEWT_072007.nc | 22-Dec-2024 22:39 | 429688 | ||
| 46070_TS_DEWT_072008.nc | 22-Dec-2024 22:42 | 429682 | ||
| 46070_TS_DEWT_072009.nc | 22-Dec-2024 22:45 | 429675 | ||
| 46070_TS_DEWT_072012.nc | 22-Dec-2024 22:49 | 429687 | ||
| 46070_TS_DEWT_072013.nc | 22-Dec-2024 22:51 | 429442 | ||
| 46070_TS_DEWT_072015.nc | 22-Dec-2024 22:55 | 429702 | ||
| 46070_TS_DEWT_072020.nc | 22-Dec-2024 23:02 | 429673 | ||
| 46070_TS_DEWT_072021.nc | 22-Dec-2024 23:05 | 429688 | ||
| 46070_TS_DEWT_072023.nc | 22-Dec-2024 23:08 | 429701 | ||
| 46070_TS_DEWT_072024.nc | 17-Jan-2025 11:49 | 429691 | ||
| 46070_TS_DEWT_072025.nc | 01-Aug-2025 03:53 | 429371 | ||
| 46070_TS_DEWT_082007.nc | 22-Dec-2024 22:39 | 429694 | ||
| 46070_TS_DEWT_082008.nc | 22-Dec-2024 22:42 | 429688 | ||
| 46070_TS_DEWT_082009.nc | 22-Dec-2024 22:45 | 429687 | ||
| 46070_TS_DEWT_082011.nc | 22-Dec-2024 22:47 | 429673 | ||
| 46070_TS_DEWT_082012.nc | 22-Dec-2024 22:49 | 429695 | ||
| 46070_TS_DEWT_082013.nc | 22-Dec-2024 22:52 | 429913 | ||
| 46070_TS_DEWT_082015.nc | 22-Dec-2024 22:55 | 429866 | ||
| 46070_TS_DEWT_082019.nc | 22-Dec-2024 23:00 | 429793 | ||
| 46070_TS_DEWT_082020.nc | 22-Dec-2024 23:03 | 429427 | ||
| 46070_TS_DEWT_082021.nc | 22-Dec-2024 23:06 | 429414 | ||
| 46070_TS_DEWT_082023.nc | 22-Dec-2024 23:08 | 429896 | ||
| 46070_TS_DEWT_082024.nc | 17-Jan-2025 11:50 | 429916 | ||
| 46070_TS_DEWT_082025.nc | 01-Sep-2025 04:00 | 429911 | ||
| 46070_TS_DEWT_092006.nc | 22-Dec-2024 22:37 | 429894 | ||
| 46070_TS_DEWT_092007.nc | 22-Dec-2024 22:40 | 429908 | ||
| 46070_TS_DEWT_092008.nc | 22-Dec-2024 22:43 | 429914 | ||
| 46070_TS_DEWT_092009.nc | 22-Dec-2024 22:46 | 429911 | ||
| 46070_TS_DEWT_092011.nc | 22-Dec-2024 22:47 | 429910 | ||
| 46070_TS_DEWT_092012.nc | 22-Dec-2024 22:50 | 429888 | ||
| 46070_TS_DEWT_092013.nc | 22-Dec-2024 22:52 | 429914 | ||
| 46070_TS_DEWT_092015.nc | 22-Dec-2024 22:55 | 429918 | ||
| 46070_TS_DEWT_092016.nc | 22-Dec-2024 22:58 | 429910 | ||
| 46070_TS_DEWT_092019.nc | 22-Dec-2024 23:00 | 429914 | ||
| 46070_TS_DEWT_092020.nc | 22-Dec-2024 23:03 | 429908 | ||
| 46070_TS_DEWT_092021.nc | 22-Dec-2024 23:06 | 429344 | ||
| 46070_TS_DEWT_092023.nc | 22-Dec-2024 23:09 | 429281 | ||
| 46070_TS_DEWT_092024.nc | 17-Jan-2025 11:51 | 429352 | ||
| 46070_TS_DEWT_092025.nc | 01-Oct-2025 03:20 | 429364 | ||
| 46070_TS_DEWT_102006.nc | 22-Dec-2024 22:37 | 426107 | ||
| 46070_TS_DEWT_102007.nc | 22-Dec-2024 22:40 | 429340 | ||
| 46070_TS_DEWT_102008.nc | 22-Dec-2024 22:43 | 429211 | ||
| 46070_TS_DEWT_102009.nc | 22-Dec-2024 22:46 | 429368 | ||
| 46070_TS_DEWT_102011.nc | 22-Dec-2024 22:47 | 429253 | ||
| 46070_TS_DEWT_102012.nc | 22-Dec-2024 22:50 | 429363 | ||
| 46070_TS_DEWT_102013.nc | 22-Dec-2024 22:52 | 429092 | ||
| 46070_TS_DEWT_102015.nc | 22-Dec-2024 22:55 | 429357 | ||
| 46070_TS_DEWT_102016.nc | 22-Dec-2024 22:59 | 429367 | ||
| 46070_TS_DEWT_102019.nc | 22-Dec-2024 23:01 | 429374 | ||
| 46070_TS_DEWT_102020.nc | 22-Dec-2024 23:04 | 429369 | ||
| 46070_TS_DEWT_102021.nc | 22-Dec-2024 23:06 | 429362 | ||
| 46070_TS_DEWT_102023.nc | 22-Dec-2024 23:09 | 422305 | ||
| 46070_TS_DEWT_102024.nc | 17-Jan-2025 11:51 | 429370 | ||
| 46070_TS_DEWT_102025.nc | 01-Nov-2025 04:23 | 429357 | ||
| 46070_TS_DEWT_112006.nc | 22-Dec-2024 22:37 | 429365 | ||
| 46070_TS_DEWT_112007.nc | 22-Dec-2024 22:40 | 429567 | ||
| 46070_TS_DEWT_112008.nc | 22-Dec-2024 22:43 | 429482 | ||
| 46070_TS_DEWT_112009.nc | 22-Dec-2024 22:46 | 429403 | ||
| 46070_TS_DEWT_112011.nc | 22-Dec-2024 22:47 | 429557 | ||
| 46070_TS_DEWT_112012.nc | 22-Dec-2024 22:50 | 429114 | ||
| 46070_TS_DEWT_112013.nc | 22-Dec-2024 22:52 | 429570 | ||
| 46070_TS_DEWT_112015.nc | 22-Dec-2024 22:56 | 429568 | ||
| 46070_TS_DEWT_112016.nc | 22-Dec-2024 22:59 | 429567 | ||
| 46070_TS_DEWT_112019.nc | 22-Dec-2024 23:01 | 429567 | ||
| 46070_TS_DEWT_112020.nc | 22-Dec-2024 23:04 | 429572 | ||
| 46070_TS_DEWT_112021.nc | 22-Dec-2024 23:06 | 429568 | ||
| 46070_TS_DEWT_112023.nc | 22-Dec-2024 23:10 | 429571 | ||
| 46070_TS_DEWT_112025.nc | 23-Nov-2025 05:10 | 429575 | ||
| 46070_TS_DEWT_122006.nc | 22-Dec-2024 22:38 | 429565 | ||
| 46070_TS_DEWT_122007.nc | 22-Dec-2024 22:40 | 429572 | ||
| 46070_TS_DEWT_122008.nc | 22-Dec-2024 22:43 | 427923 | ||
| 46070_TS_DEWT_122009.nc | 22-Dec-2024 22:46 | 429565 | ||
| 46070_TS_DEWT_122011.nc | 22-Dec-2024 22:47 | 429572 | ||
| 46070_TS_DEWT_122012.nc | 22-Dec-2024 22:50 | 429570 | ||
| 46070_TS_DEWT_122013.nc | 22-Dec-2024 22:52 | 429569 | ||
| 46070_TS_DEWT_122015.nc | 22-Dec-2024 22:56 | 429678 | ||
| 46070_TS_DEWT_122016.nc | 22-Dec-2024 22:59 | 429681 | ||
| 46070_TS_DEWT_122019.nc | 22-Dec-2024 23:01 | 429675 | ||
| 46070_TS_DEWT_122020.nc | 22-Dec-2024 23:05 | 429687 | ||
| 46070_TS_DEWT_122021.nc | 22-Dec-2024 23:07 | 425117 | ||
| 46070_TS_DEWT_122023.nc | 22-Dec-2024 23:10 | 429367 | ||